Location: Dillon
(41.1766°N, 107.0923°W)
Time: 04:16:12
(UTC+00:00)

SO-50 - Pass Details

Date: 09 July 2022
Orbit: 584 x 698 km, 64.6° (Epoch: 18 August)

Event Time Altitude Azimuth Distance (km) Brightness Sun altitude
Exits shadow 06:41:07 - 260° (W) 2,693 ? -26.0°
Reaches altitude 10° 06:43:11 10° 274° (W) 2,080 ? -26.1°
Maximum altitude 06:46:33 19° 319° (NW) 1,593 ? -26.2°
Drops below altitude 10° 06:49:59 10° 5° (N) 2,132 ? -26.2°
Sets 06:53:00 0° 23° (NNE) 3,067 ? -26.3°
